www.pogodaiklimat.ru
ПОГОДА в Джексоне
Время
и дата
01:51 06.02
01:56 06.02
02:12 06.02
02:34 06.02
02:45 06.02
02:56 06.02
03:56 06.02
04:56 06.02
05:09 06.02
05:56 06.02
06:56 06.02
07:56 06.02
08:56 06.02
09:56 06.02
10:56 06.02
11:56 06.02
12:56 06.02
13:56 06.02
14:56 06.02
15:56 06.02
17:56 06.02
18:56 06.02
19:40 06.02
19:56 06.02
20:56 06.02
21:56 06.02
22:56 06.02
23:56 06.02
00:56 07.02
01:56 07.02
02:56 07.02
03:56 07.02
04:56 07.02
05:56 07.02
06:56 07.02
07:56 07.02
08:56 07.02
09:10 07.02
09:56 07.02
11:56 07.02
12:56 07.02
13:56 07.02
14:37 07.02
14:56 07.02
15:56 07.02
16:56 07.02
17:56 07.02
18:56 07.02
Ветер
(напр.,м/с)
Видим. Явления Облачность Т
(С)
Тd
(С)
f
(%)
Тe
(С)
Тes
(С)
Комфортность P
(гПа)
Po
(гПа)
Тmin
(С)
Tmax
(С)
R
(мм)
R24
(мм)
S
(см)
Ю 6 6 км слабый снег, дымка 10/10 360 m
[Ns]
-4.0 -5.0 93 -12 -12 796.2
Ю 7 6 км слабый снег, дымка 10/10 510 m
[Ns]
-3.9 -5.0 92 -12 -12 1014.4 796.2
ЮЗ 5 13 км слабый снег 10/10 720 m
[Ns]
-4.0 -6.0 86 -11 -11 796.2
Ю 4 14 км слабый снег 10/10 870 m
[Ns]
-4.0 -6.0 86 -10 -10 796.5
Ю 5 14 км слабый снег 10/10 810 m
[Ns]
-4.0 -6.0 86 -11 -11 796.5
Ю 5 14 км слабый снег 10/10 870 m
[Ns]
-5.0 -6.7 88 -12 -12 1014.8 796.5
Ю 4 14 км слабый снег 10/10 1170 m
[Ns]
-5.0 -6.7 88 -11 -11 1015.8 797.0
штиль 0 5 км слабый снег, дымка 10/10 690 m
[Ns]
-5.0 -6.7 88 -6 -6 1016.8 797.5 -5.0 -3.9
Ю 2 10 км слабый снег, дымка 10/10 690 m
[Ns]
-5.0 -7.0 86 -9 -9 797.5
Ю 2 14 км слабый снег 10/8 1020 m
[Ac Ns]
-6.1 -7.8 88 -10 -10 1018.0 797.8
штиль 0 14 км слабый снег 10/10 1350 m
[Ns]
-6.7 -7.8 92 -8 -8 1018.9 798.6
ЮВ 2 14 км слабый снег 10/8 1500 m
[Ac Ns]
-6.1 -7.8 88 -10 -10 1019.9 799.4
В 2 16 км 10/0 2100 m
[Ac]
-5.0 -7.2 85 -9 -9 1020.2 799.9
нст 2 14 км слабый снег 10/10 1110 m
[Ns]
-4.4 -6.1 88 -9 -9 1021.2 800.5
СВ 5 16 км 10/0 2250 m
[Ac]
-3.9 -6.7 81 -11 -10 1022.3 801.5 -6.7 -3.3
СВ 3 16 км 10/10 1200 м -0.6 -5.0 72 -5 -5 1022.2 802.1
В 3 16 км 10/10 780 м +1.1 -6.1 59 -3 -3 1021.3 801.8
Ю 2 16 км 10/10 1380 м -0.6 -6.7 63 -4 -4 1021.9 801.8
ЮВ 2 16 км 8/8 1380 м -1.1 -6.7 66 -5 -4 1022.8 802.3
ЮВ 2 16 км ясно -0.6 -7.8 58 -4 -1 1023.6 802.9
нст 2 16 км ясно -7.2 -11.1 74 -11 -11 1027.0 803.7
нст 2 16 км ясно -7.2 -10.6 77 -12 -12 1027.5 804.2
С 3 16 км 8/8 1320 м -9.0 -12.0 79 -15 -15 804.5
С 4 16 км 10/10 1320 м -8.9 -11.1 84 -16 -16 1028.6 804.7
СВ 4 14 км слабый снег 10/10 1050 m
[Ns]
-7.2 -10.0 80 -14 -14 1028.4 805.0
С 3 14 км слабый снег 10/10 1140 m
[Ns]
-7.2 -10.0 80 -13 -13 1028.6 805.5
С 3 16 км 10/10 1140 м -8.3 -10.6 83 -14 -14 1029.1 805.5 -10.0 -2.2
штиль 0 16 км 10/10 1260 м -7.8 -10.0 84 -8 -8 1028.1 805.8
С 3 16 км 10/10 1140 м -9.4 -11.1 87 -15 -15 1028.4 806.1
СВ 4 14 км 10/10 1200 м -8.9 -11.1 84 -16 -16 1028.9 806.1
СВ 4 16 км 8/8 1410 м -8.9 -10.6 87 -16 -16 1029.4 806.3
СВ 6 16 км 5/5 1110 м -10.0 -11.1 92 -19 -19 1029.4 806.3
С 2 16 км 10/10 1800 м -9.4 -11.1 87 -14 -14 1030.2 806.6 -10.6 -6.7
СВ 5 16 км 10/10 1800 м -9.4 -11.1 87 -17 -17 1032.2 806.9
С 3 16 км 10/10 1650 м -7.8 -9.4 88 -14 -14 1031.5 806.9
С 6 16 км 8/8 1800 м -8.9 -10.6 87 -17 -17 1034.3 808.2
СВ 3 14 км 8/8 1650 м -6.1 -8.3 84 -12 -12 1033.1 808.2
Ю 3 16 км 10/10 1500 м -5.0 -8.0 79 -10 -10 807.9
штиль 0 14 км слабый снег 5/5 510 m
[Ns]
-3.9 -7.8 74 -5 -4 1032.4 808.2
В 2 16 км ясно 0.0 -6.7 61 -3 +2 1031.3 808.2
В 2 16 км ясно -1.1 -6.1 69 -5 +1 1031.1 807.4
СВ 2 16 км 2/2 960 м -1.7 -6.1 72 -5 -1 1030.5 807.1
СВ 3 16 км ясно -1.0 -6.0 69 -6 -2 806.9
СВ 4 16 км ясно -1.7 -6.1 72 -7 -4 1030.4 806.9
СВ 4 16 км 2/2 1110 м -2.8 -7.2 72 -9 -7 1031.0 806.9
СВ 4 16 км 8/8 1110 м -3.9 -7.2 78 -10 -10 1031.3 806.9 -3.9 +1.1
СВ 6 16 км ясно -6.1 -8.3 84 -14 -14 1031.9 806.9
СВ 4 16 км ясно -5.6 -7.8 84 -12 -12 1031.3 806.9
Местоположение метеостанции Jackson Hole Airport: широта 43.6000 долгота -110.7333 высота над уровнем моря 1966 м.
В архиве по умолчанию представлена погода в Джексоне за последние 1-2 суток. Обновление информации о фактической погоде в базе происходит ежечасно! Архивные данные за месяц целиком и за предыдущие месяцы Вы можете получить, выбрав интересующий диапазон дат из раскрывающегося списка и нажав кнопку "Ввод!".
Внимание! Архив погоды МЕТАР в базе сайта по станциям, не включенным в климатический монитор, хранится не более 60 дней. Нет смысла пытаться выбрать более раннюю дату.
*Определитесь, кто Вы:
Внимание! Время в таблицах - местное (без учета летнего времени). Для получения всемирного времени необходимо вычесть поправку, которая равна -7 ч.
Смотрите также архив погоды в соседних городах и на ближайших метеорологических станциях:
Партнеры нашего сайта:      
Пояснения к столбцам:
  • Ветер - указаны скорость ветра в м/с - средняя за 10 мин, порывы в срок и между сроками (в фигурных скобках) и направление, откуда дует ветер: С - северный,
  • СВ - северо-восточный, В - восточный, ЮВ - юго-восточный, Ю - южный, ЮЗ - юго-западный, З - западный, СЗ - северо-западный.
  • Видимость - горизонтальная дальность видимости в метрах или километрах. При видимости от 1 до 10 км при отсутствии осадков обычно наблюдается дымка, при ухудшении видимости до 1 км и менее - туман. В сухую погоду видимость может ухудшаться дымом, пылью или мглою.
  • Явления - указаны атмосферные явления, наблюдавшиеся в срок или в последний час перед сроком; фигурными скобками обозначены явления, наблюдавшиеся между сроками (за 1-3 часа до срока); квадратными скобками обозначены град или гололедные отложения с указанием их диаметра в мм.
  • Облачность - указаны через наклонную черту общая и нижняя облачность в баллах и высота нижней границы облаков в метрах; квадратными скобками обозначены формы облаков: Ci - перистые, Cs - перисто-слоистые, Cc - перисто-кучевые, Ac - высококучевые, As - высокослоистые, Sc - слоисто-кучевые, Ns - слоисто-дождевые, Cu - кучевые, Cb - кучево-дождевые. Подробнее классификацию облаков см. в Атласе облаков (PDF).
  • T - Температура воздуха - температура, измеренная на высоте 2 м над землей.
  • Td - Температура точки росы - температура, при понижении до которой содержащийся в воздухе водяной пар достигнет насыщения.
  • f - Относительная влажность воздуха - влажноcть воздуха, измеренная на высоте 2 м над землей.
  • Te - Эффективная температура - температура, которую ощущает одетый по сезону человек в тени. Характеристика душности погоды. При расчете учитывается влияние влажности воздуха и скорости ветра на теплоощущения человека.
  • Tes - Эффективная температура на солнце - температура, которую ощущает человек, с поправкой на солнечный нагрев. Характеристика знойности погоды. Зависит от высоты солнца над горизонтом, облачности и скорости ветра. Ночью, в пасмурную погоду, а также при ветре 12 м/с и более поправка равна нулю.
  • P - Атмосферное давление - приведенное к уровню моря атмосферное давление.
  • Po - Атмосферное давление - измеренное на уровне метеостанции атмосферное давление.
  • Tmin - Минимальная температура - минимум температуры воздуха на высоте 2 м над землей.
  • Tmax - Максимальная температура - максимум температуры воздуха на высоте 2 м над землей.
  • R - Количество осадков - Количество выпавших осадков за период времени, мм. При наведении курсора мыши на число - период времени, за который выпало указанное количество осадков.
  • R24 - Количество осадков - Количество выпавших осадков за 24 часа, мм.
  • S - Снежный покров - Высота снежного покрова, см. При наведении курсора мыши на число - состояние снежного покрова и степень покрытия местности в баллах.